This demonstration page uses our WeatherBlox Daily Observations layout. Learn more.

Left ArrowRight Arrow

44.31136, -96.79839

Hourly Observations for August 15, 2018

Temp ( °F °C ) Dew Point ( °F °C ) Humidity (%) Winds ( mph kmh ) Pressure ( in mb ) Visibility ( mi km ) Precip ( " mm )
12:56 am 00:56 Mostly Cloudy 66 18.9 63 17.2 90 90 ENE 9 15 30.00 1016 10 16 0.00 0.00
1:56 am 01:56 Clear 65 18.3 62 16.7 90 90 NE 6 9 30.00 1016 10 16 0.00 0.00
2:21 am 02:21 Mostly Cloudy 64 18 61 16 88 88 NNE 3 6 29.97 1015 10 16 0.00 0.00
2:56 am 02:56 Cloudy 64 17.8 61 16.1 90 90 NNW 5 7 30.00 1016 10 16 0.00 0.00
3:35 am 03:35 Mostly Cloudy 64 18 61 16 88 88 NNE 5 7 29.94 1014 10 16 0.00 0.00
3:56 am 03:56 Cloudy 64 17.8 60 15.6 87 87 NE 5 7 29.99 1016 10 16 0.00 0.00
4:56 am 04:56 Mostly Cloudy 63 17.2 60 15.6 90 90 Calm 29.99 1016 10 16 0.00 0.00
5:56 am 05:56 Mostly Cloudy 61 16.1 59 15 93 93 WNW 5 7 30.00 1016 10 16 0.00 0.00
6:56 am 06:56 Cloudy 63 17.2 60 15.6 90 90 Calm 30.00 1016 10 16 0.00 0.00
7:56 am 07:56 Cloudy 63 17.2 59 15 87 87 ENE 7 11 30.02 1017 10 16 0.00 0.00
8:56 am 08:56 Cloudy 64 17.8 60 15.6 87 87 NNE 5 7 30.04 1017 10 16 0.00 0.00
9:56 am 09:56 Cloudy 66 18.9 61 16.1 84 84 E 8 13 30.02 1017 10 16 0.00 0.00
10:56 am 10:56 Cloudy 71 21.7 64 17.8 79 79 NE 6 9 30.01 1016 10 16 0.00 0.00
11:25 am 11:25 Cloudy 72 22 64 18 78 78 ENE 3 6 29.94 1014 10 16 0.00 0.00
11:56 am 11:56 Mostly Cloudy 75 23.9 66 18.9 74 74 VRB 3 6 30.01 1016 10 16 0.00 0.00
12:35 pm 12:35 Mostly Cloudy 73 23 66 19 78 78 WSW 5 7 29.94 1014 10 16 0.00 0.00
12:56 pm 12:56 Mostly Cloudy 77 25 68 20 74 74 SW 5 7 30.00 1016 10 16 0.00 0.00
1:08 pm 13:08 Partly Cloudy 75 24 66 19 74 74 Calm 29.88 1012 10 16 0.00 0.00
1:56 pm 13:56 Partly Cloudy 77 25 68 20 74 74 VRB 3 6 29.99 1016 10 16 0.00 0.00
2:34 pm 14:34 Mostly Cloudy 81 27 68 20 66 66 SW 3 6 29.88 1012 9 14 0.00 0.00
2:56 pm 14:56 Cloudy 79 26.1 68 20 69 69 SSW 6 9 29.98 1015 10 16 0.00 0.00
3:10 pm 15:10 Partly Cloudy 79 26 68 20 70 70 WSW 3 6 29.88 1012 10 16 0.00 0.00
3:18 pm 15:18 Mostly Cloudy 81 27 68 20 66 66 W 7 11 29.88 1012 10 16 0.00 0.00
3:56 pm 15:56 Cloudy 80 26.7 66 18.9 62 62 VRB 3 6 29.96 1015 10 16 0.00 0.00
4:56 pm 16:56 Cloudy 79 26.1 68 20 69 69 WSW 3 6 29.96 1015 10 16 0.00 0.00
5:04 pm 17:04 Cloudy with Nearby Thunderstorms 79 26 68 20 70 70 VRB 3 6 29.85 1011 10 16 0.00 0.00
5:36 pm 17:36 Cloudy with Strong Thunderstorms 70 21 64 18 83 83 SW 22 35 29.88 1012 2 3 0.06 1.52
5:41 pm 17:41 Cloudy with Strong Thunderstorms 68 20 64 18 88 88 WSW 14 22 29.88 1012 1 2 0.21 5.33
5:49 pm 17:49 Cloudy with Thunderstorms 70 21 63 17 78 78 SE 5 7 29.91 1013 3 4 0.26 6.60
5:56 pm 17:56 Cloudy with Thunderstorms 69 20.6 65 18.3 87 87 E 6 9 29.99 1016 9 14 0.27 6.86
6:36 pm 18:36 Cloudy with Light Rain 66 19 66 19 100 100 NW 8 13 N/A 9 14 0.02 0.51
6:56 pm 18:56 Cloudy 68 20 66 18.9 93 93 NNW 8 13 29.99 1016 10 16 0.03 0.76
7:56 pm 19:56 Sunny 66 18.9 64 17.8 93 93 NE 8 13 29.99 1016 10 16 0.00 0.00
8:56 pm 20:56 Partly Cloudy 66 18.9 65 18.3 96 96 E 12 19 29.98 1015 10 16 0.00 0.00
9:56 pm 21:56 Clear 67 19.4 65 18.3 93 93 SSE 5 7 29.98 1015 10 16 0.00 0.00
10:56 pm 22:56 Cloudy 66 18.9 65 18.3 96 96 WSW 5 7 29.99 1016 10 16 0.00 0.00
11:56 pm 23:56 Mostly Clear 66 18.9 64 17.8 93 93 WNW 3 6 30.01 1016 10 16 0.00 0.00

Powered by AerisWeather